Back to catalog

BLOCK DM-SL DEB

AliveGEO
NORAD 46091·DEBRIS·🇷🇺 Russia

Launched Dec 24, 2019 from Baikonur Cosmodrome

Loading…

TLE

FreshSource: Space-Track

Epoch: Sep 13, 2026, 14:48 UTC

1 46091U 19095E   26256.61724406 -.00000102  00000-0  00000-0 0  9999
2 46091   5.5369  72.1962 0049854 191.9857 168.1391  1.03274791 24657

Track BLOCK DM-SL DEB in real time with AllMySat

Download on the App Store